Location: Beaumont
(49.6890°N, 3.1316°E)
Time: 11:40:57
(UTC+00:00)

Daily predictions for brighter satellites

Satellite Brightness Start Highest point End
(mag) Time Altitude Azimuth Time Altitude Azimuth Time Altitude Azimuth
CZ-4 R/B 1.2 19:21:19 10° SSE 19:25:00 63° ENE 19:28:40 10° N
ATLAS 5 CENTAUR R/B 3.8 19:24:33 10° N 19:26:17 13° NNE 19:28:08 10° NE
NOSS 3-1 (C) 4.4 19:20:44 10° NW 19:27:08 51° NE 19:35:10 10° ESE
SPOT 5 2.8 19:24:13 10° S 19:28:42 80° WSW 19:33:05 10° NNW
NOSS 3-4 (A) 3.4 19:24:16 10° SW 19:29:35 80° NW 19:35:32 10° NE
NOSS 3-4 (C) 3.4 19:24:47 10° SW 19:30:07 81° NW 19:36:06 10° NE
Cosmos 546 4.5 19:27:00 10° WSW 19:30:40 87° SSE 19:34:20 10° ENE
Cosmos 1656 Rocket 3.7 19:25:31 10° NNW 19:31:00 71° ENE 19:36:31 10° SE
Cosmos 1025 Rocket 3.6 19:27:38 10° N 19:31:39 39° ENE 19:35:39 10° SE
Helios 1A Rocket 2.7 19:29:42 10° NNE 19:32:47 41° E 19:35:49 10° S
Cosmos 2242 Rocket 3.6 19:31:23 10° N 19:35:52 89° WSW 19:40:16 10° S
CZ-4B R/B 3.9 19:32:49 10° SSE 19:36:36 81° WSW 19:40:31 10° NNW
Cosmos 1733 Rocket 3.0 19:32:19 10° S 19:36:40 76° E 19:41:06 10° NNE
PAYLOAD B 4.3 19:31:18 10° SSE 19:36:44 67° ENE 19:42:12 10° N
Terra 2.0 19:33:23 10° SE 19:37:56 53° ENE 19:42:31 10° N
BREEZE-M DEB (TANK) 2.1 19:35:47 10° W 19:38:17 77° S 19:43:26 10° ESE
IRAS Rocket 4.4 19:35:43 10° SSE 19:41:12 77° WSW 19:46:42 10° NNW
Gblst 52 Del rocket 4.5 19:36:25 10° SW 19:42:12 60° SSE 19:48:49 10° ENE
Resurs 01 Rocket 4.3 19:39:26 10° SW 19:42:45 21° W 19:46:04 10° NW
Cosmos 1821 Rocket 4.0 19:37:05 10° S 19:43:21 76° E 19:49:44 10° NNE
Cosmos 2237 Rocket 2.6 19:38:41 10° SW 19:44:21 73° WNW 19:50:05 10° NNE
Cosmos 1980 4.2 19:40:44 10° SW 19:46:20 66° WNW 19:51:59 10° NNE
Cosmos 2218 Rocket 4.2 19:43:16 10° SSW 19:49:24 75° WNW 19:55:36 10° N
CSL-04 Rocket 4.3 19:44:27 10° S 19:49:56 62° WSW 19:55:27 10° NNW
Cosmos 1346 Rocket 2.6 19:47:53 10° N 19:51:29 63° ENE 19:55:03 10° SSE
BREEZE-M DEB (TANK) 2.2 19:49:57 10° W 19:52:16 88° SSE 19:56:34 10° E
COSMOS 2455 4.2 19:47:34 10° NNW 19:52:44 28° NNE 19:57:52 10° E
Meteor 2-15 Rocket 4.4 19:46:40 10° S 19:52:44 81° E 19:58:52 10° NNE
Meteor 2-16 Rocket 4.5 19:51:23 10° N 19:57:32 73° ENE 20:03:38 10° SSE
SL-4 R/B 3.6 19:55:40 10° SSE 19:57:35 14° SE 19:57:35 14° SE
Cosmos 1400 Rocket 2.8 19:54:37 10° SSW 19:58:12 72° WNW 20:01:51 10° N
Cosmos 1000 Rocket 4.5 19:52:23 10° N 19:58:33 69° ENE 20:04:39 10° SSE
BREEZE-M DEB (TANK) 4.5 19:54:24 10° S 19:58:34 34° ESE 20:10:46 10° ENE
Cosmos 1602 3.1 19:56:26 10° N 19:58:34 34° ENE 19:59:37 21° SE
Cosmos 1812 1.2 19:57:38 10° SSW 19:59:16 55° W 20:00:56 10° N
Meteor 1-31 Rocket 3.8 19:57:54 10° S 20:01:15 41° W 20:04:38 10° NNW
USA 59 Rocket 1.2 19:59:56 10° WNW 20:03:05 31° SW 20:07:04 10° S
ASTEX 1 3.7 19:59:48 11° SSE 20:04:19 49° ENE 20:09:06 10° N
Cosmos 2297 3.9 20:00:29 10° NNW 20:06:12 59° ENE 20:10:44 16° SE
Cosmos 1869 3.9 20:06:01 17° SE 20:08:07 30° E 20:11:17 10° NNE
Cosmos 1315 Rocket 4.2 20:08:55 17° ESE 20:09:45 18° E 20:12:24 10° NE
Cosmos 2369 Rocket 2.2 20:04:59 10° NNW 20:10:36 69° ENE 20:15:00 17° SE
SPOT 3 Rocket 4.4 20:08:17 16° ESE 20:11:46 34° ENE 20:16:23 10° N
ADEOS 3.6 20:07:06 10° SSE 20:12:19 84° WSW 20:17:34 10° NNW
SL-08 R/B 3.4 20:09:09 10° NNE 20:14:02 61° ESE 20:18:52 10° S
USA 186 1.5 20:14:08 31° ESE 20:14:42 39° ENE 20:16:58 10° N
Lacrosse 5 rocket 2.7 20:14:03 10° NW 20:16:42 24° N 20:19:22 10° ENE
RESURS DK-1 3.9 20:13:25 10° WSW 20:17:07 38° NW 20:20:51 10° NNE
Cosmos 2221 Rocket 3.5 20:14:30 10° N 20:18:56 80° ENE 20:22:40 14° SSE
YAOGAN 11 4.3 20:15:12 10° NNE 20:19:20 46° E 20:23:05 12° S
USA 234 3.3 20:13:15 10° ENE 20:19:40 54° SE 20:26:03 10° SW
Cosmos 2285 Rocket 4.0 20:14:33 10° S 20:20:47 61° ESE 20:27:01 10° NNE
SKYMED 3 4.2 20:18:09 10° NNE 20:22:03 88° ESE 20:25:57 10° SSW
Cosmos 405 Rocket 2.8 20:20:55 10° N 20:23:41 35° ENE 20:24:26 29° ESE
NOSS 3-1 (A) 4.3 20:20:23 10° NW 20:26:56 54° NE 20:33:20 17° ESE
Cosmos 1943 3.9 20:23:23 13° SSE 20:27:40 33° ESE 20:32:40 10° NE
Cosmos 921 Rocket 4.1 20:24:10 10° N 20:28:07 31° ENE 20:30:06 21° ESE
Molniya-1 3.3 20:25:46 10° SSW 20:28:26 62° SE 20:34:21 10° NE
CZ-4B R/B 3.3 20:27:35 26° ESE 20:28:46 34° ENE 20:31:52 10° N
CZ-4B R/B 3.7 20:24:28 10° S 20:30:01 61° WSW 20:35:38 10° NNW
SL-8 R/B 3.6 20:27:41 10° WSW 20:32:21 61° SSE 20:36:05 16° E
SL-08 R/B 4.5 20:26:14 10° N 20:32:28 86° E 20:38:00 14° S
Cosmos 1975 Rocket 3.7 20:29:55 10° N 20:34:07 40° ENE 20:35:59 26° SE
Cosmos 1356 Rocket 4.3 20:36:34 26° ESE 20:37:11 28° E 20:40:37 10° NNE
ERS-1 Rocket 4.1 20:35:10 10° SSW 20:39:52 41° W 20:44:37 10° NNW
Cosmos 2263 4.2 20:36:04 10° NNW 20:41:45 88° ENE 20:45:14 25° SSE
Cosmos 2292 Rocket 4.5 20:40:01 10° NNW 20:44:03 40° W 20:47:05 12° SSW
CZ-2C R/B 3.1 20:44:39 30° ENE 20:44:41 30° ENE 20:47:15 10° N
Okean-O 2.8 20:44:32 20° S 20:47:30 69° WSW 20:51:53 10° NNW
Cosmos 2298 Rocket 4.1 20:44:22 10° SSW 20:49:40 85° WNW 20:55:02 10° NNE
Cosmos 1908 Rocket 3.9 20:46:44 10° SSW 20:51:01 62° WNW 20:55:18 10° N
Cosmos 44 3.8 20:45:58 10° SW 20:51:03 70° NW 20:56:25 10° NE
Okean O Rocket 2.1 20:53:05 19° S 20:56:01 54° W 21:00:15 10° NNW
CZ-4B R/B 3.3 20:55:25 32° SSE 20:57:35 70° ENE 21:02:18 10° N
CZ-4 R/B 4.1 20:57:52 10° WSW 20:59:25 12° W 21:00:58 10° WNW
Ariane Rocket 3.0 20:57:13 32° SE 20:59:28 64° ENE 21:04:28 10° N
SL-16 R/B 2.6 20:54:49 10° SW 21:00:26 65° WNW 21:06:07 10° NNE
Geosat 3.9 20:55:27 10° NNE 21:00:30 88° WNW 21:05:30 10° SSW
Cosmos 1782 Rocket 3.4 20:58:38 24° S 21:01:11 87° E 21:05:31 10° N
Cosmos 1934 Rocket 4.1 20:55:57 10° SSW 21:02:13 78° W 21:08:25 10° N
Spot 2 Rocket 4.3 21:03:19 17° SSW 21:07:01 47° W 21:11:53 10° NNW
USA 245 4.0 21:05:18 30° S 21:07:49 80° WSW 21:13:27 10° NNW
Cosmos 1269 Rocket 4.0 21:02:44 10° NNW 21:08:03 88° WSW 21:10:20 35° SSE
Cosmos 546 4.5 21:05:15 10° W 21:08:55 78° N 21:09:52 47° E
ATLAS 5 CENTAUR R/B 2.5 21:05:35 10° NNW 21:09:16 37° NE 21:11:03 26° E
Cosmos 1140 Rocket 3.4 21:05:27 10° NNW 21:10:36 79° WSW 21:12:46 35° SSE
Terra 3.9 21:12:11 10° SW 21:15:46 21° W 21:19:22 10° NW
NOSS 3-1 (C) 4.3 21:11:18 10° NW 21:18:13 59° SW 21:23:02 27° SSE
Cosmos 1818 4.4 21:15:35 10° NNW 21:20:47 42° NE 21:23:16 27° E
Cosmos 1862 2.9 21:19:00 10° NNW 21:22:37 82° W 21:22:56 71° SSW
Cosmos 1447 Rocket 4.4 21:18:41 10° N 21:24:59 82° E 21:27:42 36° SSE
Cosmos 2058 2.7 21:23:04 10° NNW 21:27:00 83° W 21:27:31 65° S
Meteor 2-17 Rocket 4.5 21:21:06 10° N 21:27:14 68° ENE 21:29:29 40° SE
Cosmos 407 Rocket 3.4 21:22:25 10° NNW 21:27:34 74° ENE 21:28:57 48° SE
Cosmos 1174 4.2 21:27:47 10° NW 21:30:21 37° W 21:30:21 37° W
Cosmos 371 Rocket 3.3 21:27:26 10° NNW 21:32:16 66° ENE 21:33:16 52° ESE
SL-4 R/B 4.2 21:30:45 10° SW 21:31:14 13° SW 21:31:14 13° SW
ATLAS 2AS CENTAUR R/B 4.3 21:38:07 17° E 21:38:07 17° E 21:40:46 10° ENE
COSMOS 2455 2.8 21:33:18 10° NW 21:39:21 85° WSW 21:41:17 46° SSE
SJ 16-02 1.5 21:36:05 10° NNW 21:40:17 53° ENE 21:40:32 52° E
Cosmos 2251 Rocket 4.0 21:36:59 10° NNW 21:42:12 51° ENE 21:43:27 42° ESE
Cosmos 1315 Rocket 3.9 21:43:33 26° WSW 21:45:02 38° WNW 21:48:34 10° N
Cosmos 1536 Rocket 3.7 21:41:12 10° N 21:45:27 56° ENE 21:45:30 56° E
Gbstr 26 Del rocket 4.1 21:45:47 10° SW 21:48:40 33° SW 21:48:40 33° SW
Cosmos 1605 Rocket 4.4 21:47:33 20° SSW 21:51:50 58° WNW 21:57:56 10° N
Lacrosse 5 rocket 1.9 21:50:34 10° NW 21:52:48 40° NW 21:52:48 40° NW
Cosmos 2369 Rocket 4.0 21:49:52 10° NW 21:54:03 22° WSW 21:56:46 16° SW
SeaSat 1 3.3 21:56:42 35° E 21:57:51 40° NE 22:02:26 10° NNW
USA 234 3.5 21:56:20 10° ENE 22:02:50 68° NNW 22:09:20 10° WSW
Cosmos 1697 Rocket 4.0 21:58:22 10° NNW 22:03:24 32° NE 22:05:25 25° E
Cosmos 2173 Rocket 3.9 22:03:21 54° SSE 22:04:40 69° E 22:10:44 10° NNE
Cosmos 921 Rocket 4.2 22:02:14 10° NW 22:06:11 33° W 22:06:41 32° WSW
Helios 1B rocket 3.1 22:09:10 42° NNE 22:09:10 42° NNE 22:11:43 10° N
Cosmos 1603 3.6 22:07:59 51° SSW 22:09:30 85° ESE 22:15:14 10° NNE
Cosmos 1943 4.0 22:05:58 10° SW 22:11:29 50° NW 22:17:01 10° NNE
Meteor 2-3 Rocket 3.6 22:07:34 10° N 22:13:12 83° ENE 22:14:03 65° SSE
SL-8 R/B 3.8 22:09:48 10° W 22:13:50 63° WSW 22:13:50 63° WSW
Cosmos 2151 Rocket 3.5 22:17:04 80° NNW 22:17:04 80° NNW 22:21:16 10° N
Okean 1 Rocket 3.4 22:17:47 56° NE 22:17:47 56° NE 22:21:26 10° NNE
NOSS 3-1 (A) 4.3 22:11:03 10° NW 22:18:02 55° WSW 22:20:42 41° S
Helios 1A 3.3 22:18:50 10° NNE 22:22:03 57° NNE 22:22:03 57° NNE
Cosmos 1980 Rocket 4.0 22:19:12 10° NNW 22:23:50 25° NE 22:26:39 17° E
Okean 2 Rocket 3.2 22:24:29 73° NNE 22:24:29 73° NNE 22:28:33 10° N
Cosmos 968 Rocket 4.1 22:21:38 10° NNW 22:26:37 43° ENE 22:27:16 41° ENE
Cosmos 1190 Rocket 3.9 22:21:51 10° NNW 22:27:10 80° WSW 22:27:28 76° SSW
Cosmos 1455 Rocket 4.1 22:28:48 37° ENE 22:28:48 37° ENE 22:32:00 10° NNE
Cosmos 2100 Rocket 3.9 22:26:44 53° SSW 22:28:19 81° W 22:34:34 10° N
Tsikada Rocket 4.1 22:24:58 10° N 22:31:10 58° ENE 22:32:10 52° ESE
Cosmos 2061 Rocket 4.3 22:35:46 46° ESE 22:36:12 47° E 22:42:05 10° NNE
Cosmos 972 Rocket 4.4 22:35:51 63° SSE 22:36:40 70° ESE 22:43:27 10° NNE
Meteor 1-27 4.4 22:40:55 56° E 22:40:59 56° E 22:46:35 10° NNE
Cosmos 2360 4.1 22:36:02 10° NNW 22:41:43 73° WSW 22:42:06 70° SSW
Cosmos 1656 3.7 22:38:49 10° NW 22:44:12 61° WSW 22:44:20 61° WSW
Cosmos 332 Rocket 3.8 22:45:42 10° NNW 22:50:07 75° NNW 22:50:07 75° NNW
ATLAS 5 CENTAUR R/B 2.8 22:47:24 10° NW 22:50:11 34° W 22:50:11 34° W
ATLAS 3B R/B 3.5 22:43:47 10° NW 22:51:30 55° NE 22:55:41 27° ESE
Cosmos 1420 Rocket 4.4 22:54:22 50° WSW 22:55:17 58° WNW 23:00:32 10° NNE
Cosmos 1954 Rocket 4.3 22:52:21 10° NNW 22:57:15 54° W 22:57:15 54° W
Aureole 3 Rocket 4.0 22:58:44 51° E 22:58:44 51° E 23:04:49 10° NNE
Cosmos 1833 Rocket 3.0 23:01:17 52° E 23:01:17 52° E 23:06:06 10° NE
Cosmos 676 Rocket 4.1 22:55:55 10° NNW 23:00:56 67° W 23:00:56 67° W
Cosmos 2082 Rocket 4.4 23:02:51 13° E 23:02:51 13° E 23:04:29 10° ENE
ALOS 2 3.1 23:03:31 59° N 23:03:31 59° N 23:07:10 10° NNW
Sich 1 Rocket 4.3 23:03:46 47° WNW 23:03:46 47° WNW 23:07:39 10° N
BREEZE-M R/B 4.3 22:54:30 10° W 23:03:51 86° N 23:09:31 10° E
SL-08 R/B 4.3 23:03:25 70° SSW 23:04:11 86° W 23:10:29 10° N
Cosmos 1818 4.2 22:59:13 10° NW 23:03:51 44° WSW 23:03:51 44° WSW
Spot 4 4.0 23:08:14 69° NW 23:08:14 69° NW 23:12:29 10° NNW
ARIANE 5 R/B 3.2 23:10:04 54° NW 23:10:04 54° NW 23:13:34 10° NNW
Meteor 2-12 Rocket 4.3 23:03:27 10° NNW 23:09:30 77° W 23:10:02 71° SW
CZ-2C R/B 4.1 23:04:57 10° NNE 23:09:16 34° E 23:09:16 34° E
Cosmos 1725 Rocket 4.2 23:08:51 53° SW 23:10:07 65° WNW 23:16:25 10° N
DEBRIS 4.2 23:14:40 46° WSW 23:16:22 83° SSE 23:32:24 10° E
Cosmos 2228 3.9 23:18:31 45° NNE 23:18:31 45° NNE 23:21:29 10° N
ARIANE 6 FM1 Upper Stage 4.1 23:13:43 10° NW 23:16:01 33° NW 23:16:01 33° NW
USA 229 DEB 4.0 23:10:26 10° NW 23:17:52 82° NE 23:20:33 47° SE
USA 229 4.0 23:10:29 10° NW 23:17:55 81° NE 23:20:40 46° SE
SJ 16-02 3.5 23:15:02 10° NW 23:17:01 17° W 23:17:01 17° W
Cosmos 2233 Rocket 3.9 23:18:32 67° SW 23:19:22 78° W 23:25:38 10° N
Cosmos 1850 Rocket 4.0 23:15:07 10° NNW 23:20:06 73° NE 23:20:06 73° NE
Cosmos 2056 Rocket 3.8 23:20:45 60° W 23:21:11 63° WNW 23:26:35 10° NNE
ATLAS 2AS CENTAUR R/B 2.5 23:25:29 68° S 23:26:15 76° SE 23:33:05 10° NE
Cosmos 1331 Rocket 4.3 23:27:28 57° ENE 23:27:28 57° ENE 23:31:58 10° NNE
Cosmos 1624 Rocket 4.4 23:28:32 55° WNW 23:28:52 56° WNW 23:33:58 10° NNE
CZ-2C R/B 3.0 23:29:07 53° E 23:29:32 54° ENE 23:34:49 10° N
Cosmos 292 Rocket 4.2 23:25:50 10° NNW 23:29:43 55° NW 23:29:43 55° NW
SeaSat 1 3.5 23:36:18 34° W 23:36:18 34° W 23:39:49 10° NW
Cosmos 2098 Rocket 4.4 23:36:56 41° E 23:36:56 41° E 23:42:06 10° NNE
Cosmos 1626 Rocket 4.3 23:32:46 10° N 23:35:57 49° N 23:35:57 49° N
Nadezhda 4 Rocket 4.2 23:36:11 10° N 23:42:15 56° ENE 23:43:04 52° ESE
ACS3 Solar Sail 3.3 23:39:15 10° NE 23:43:49 22° E 23:44:47 21° E
Cosmos 1110 Rocket 4.0 23:44:35 78° NNE 23:44:35 78° NNE 23:49:34 10° NNE
Meteor 1-25 Rocket 4.4 23:38:41 10° N 23:44:28 63° ENE 23:44:52 62° E
USA 234 4.2 23:39:10 10° ENE 23:45:23 48° N 23:51:36 10° WNW
Cosmos 1697 Rocket 3.0 23:42:08 10° NW 23:47:06 54° W 23:47:06 54° W
Cosmos 2151 4.0 23:49:47 10° N 23:52:40 43° NNW 23:52:40 43° NNW
